Miscellaneous Local Product
Issued by NWS Hastings, NE

Home | Current Version | Previous Version | Text Only | Print | Product List | Glossary On
Versions: 1 2 3 4 5 6 7 8 9 10 11 12 13 14 15 16 17 18 19 20 21 22 23 24 25 26 27 28 29 30 31 32 33 34 35 36 37 38 39 40 41 42 43 44 45 46 47 48 49 50
000
AXUS43 KGID 302102
MISGRI

GID CWA HOURLY WEATHER ROUNDUP
NATIONAL WEATHER SERVICE HASTINGS NE
300 PM CST FRI JAN 30 2015

NOTE: "FAIR" INDICATES FEW OR NO CLOUDS BELOW 12,000 FEET WITH NO
SIGNIFICANT WEATHER AND/OR OBSTRUCTIONS TO VISIBILITY.

...SOUTH CENTRAL NEBRASKA...

CITY           SKY/WX    TMP DP  RH WIND       PRES   REMARKS
GRAND ISLAND   PTSUNNY   45  25  45 S17       30.29F
HASTINGS       PTSUNNY   44  23  43 S13       30.29F
KEARNEY        CLOUDY    45  25  45 S18       30.27F
ORD            CLOUDY    45  24  43 S15       30.22F
YORK           CLOUDY    43  27  52 SW17      30.33F
AURORA         PTSUNNY   46  26  45 S16       30.30F
LEXINGTON      CLOUDY    47  27  45 S14G23    30.24S
HOLDREGE       CLOUDY    43  25  50 S16G22    30.26F
HEBRON         PTSUNNY   44  24  45 S12       30.36F

...NEBRASKA PANHANDLE...

CITY           SKY/WX    TMP DP  RH WIND       PRES   REMARKS
CHADRON        PTSUNNY   50  28  42 W5        30.13F
ALLIANCE       CLOUDY    48  25  40 N3        30.11F
SCOTTSBLUFF    CLOUDY    43  29  57 NW6       30.12F
SIDNEY         CLOUDY    45  27  49 CALM      30.11F

...WESTERN AND NORTH CENTRAL NEBRASKA...

CITY           SKY/WX    TMP DP  RH WIND       PRES   REMARKS
VALENTINE      MOSUNNY   53  25  33 SW13      30.13F
AINSWORTH      MOSUNNY   51  23  33 S17       30.14F
ONEILL         PTSUNNY   45  28  51 S17       30.20F
BROKEN BOW     CLOUDY    47  27  45 S18G25    30.20F
IMPERIAL       CLOUDY    52  32  46 S20G28    30.14F
NORTH PLATTE   CLOUDY    48  26  42 S15       30.18F
MCCOOK         CLOUDY    48  27  44 S12       30.21F

...EASTERN NEBRASKA...

CITY           SKY/WX    TMP DP  RH WIND       PRES   REMARKS
NORFOLK        MOSUNNY   44  27  51 S23       30.26F
SO SIOUX CITY  SUNNY     40  27  59 S13       30.32F WCI  32
TEKAMAH        SUNNY     40  25  55 S16       30.35F WCI  31
COLUMBUS       CLOUDY    41  27  56 S15       30.32F
ALBION         PTSUNNY   42  26  52 S15       30.27F
OMAHA EPPLEY   PTSUNNY   37  23  56 S13       30.38F WCI  29
OFFUTT AFB     PTSUNNY   36  23  58 S13       30.38F WCI  28
MILLARD        PTSUNNY   37  24  59 S9        30.38F WCI  30
LINCOLN        CLOUDY    41  25  53 S14       30.37F
NEBRASKA CITY  CLOUDY    37  20  51 S9        30.40F WCI  30
BEATRICE       PTSUNNY   41  26  54 S12       30.38F
FALLS CITY     PTSUNNY   39  23  52 S9        30.42F WCI  33

...NORTHERN KANSAS...

CITY           SKY/WX    TMP DP  RH WIND       PRES   REMARKS
GOODLAND       CLOUDY    47  31  53 S18       30.17F
HILL CITY      CLOUDY    46  25  43 S16G24    30.28F
NORTON         CLOUDY    46  21  36 S15       30.25S
PHILLIPSBURG   CLOUDY    48  27  43 S14       30.29F
SMITH CENTER   PTSUNNY   45  25  45 S14       30.32S
BELOIT         SUNNY     46  25  42 S13       30.35S
HAYS           CLOUDY    45  23  42 S16G22    30.32F
RUSSELL        CLOUDY    44  26  49 S20       30.31F
CONCORDIA      CLOUDY    43  27  53 S14       30.36F
SALINA         CLOUDY    45  26  47 S12       30.39F
TOPEKA         MOSUNNY   40  22  48 S5        30.45F



USA.gov is the U.S. government's official web portal to all federal, state and local government web resources and services.